Weather History for CWSP - December, 2012

Change the Weather History Date:

Tuesday, December 11, 2012

  Actual Average Record
Temperature  
Mean Temperature 44 °F -  
Max Temperature 47 °F - - ()
Min Temperature 42 °F - - ()
Degree Days  
Heating Degree Days 20    
Moisture  
Dew Point 42 °F    
Average Humidity 90    
Maximum Humidity 95    
Minimum Humidity 75    
Precipitation  
Precipitation 0.16 in - - ()
Sea Level Pressure  
Sea Level Pressure 29.67 in    
Wind  
Wind Speed 8 mph ()    
Max Wind Speed 22 mph    
Max Gust Speed -    
T = Trace of Precipitation, MM = Missing Value Source: Averaged Metar Reports

Daily Weather History Graph

Daily Weather History Graph

Search for Another Location

Airport or City:

Trip Planner

Search our weather history database for the weather conditions in past years. The results will help you decide how hot, cold, wet, or windy it might be!

Date:

Astronomy

Dec. 11, 2012 Rise Set
Actual Time 7:57 AM PST 4:20 PM PST
Civil Twilight 7:20 AM PST 4:57 PM PST
Nautical Twilight 6:41 AM PST 5:37 PM PST
Astronomical Twilight 6:03 AM PST 6:15 PM PST
Moon 5:55 AM PST (12/11) 3:08 PM PST (12/11)
Length of Visible Light 9h 36m
Length of Day
8h 23m
Waning Crescent, 4% of the Moon is Illuminated
Dec 11
Waning Crescent
Dec 13
New
Dec 19
First Quarter
Dec 28
Full
Jan 4
Last Quarter

Hourly Weather History & Observations

Time (PST) Temp. Windchill Dew Point Humidity Pressure Visibility Wind Dir Wind Speed Gust Speed Precip Events Conditions
12:00 AM 46.6 °F - 40.6 °F 80% 30.02 in - West 21.9 mph - N/A   Unknown
1:00 AM 46.6 °F - 39.2 °F 75% 29.98 in - West 16.1 mph - N/A   Unknown
2:00 AM 44.6 °F 38.1 °F 41.2 °F 88% 29.94 in - WNW 13.8 mph - N/A   Unknown
3:00 AM 44.1 °F 39.0 °F 42.1 °F 93% 29.90 in - WNW 9.2 mph - N/A   Unknown
4:00 AM 46 °F - 42 °F 83% 29.85 in - West 12.7 mph - -  
4:00 AM 46.4 °F 40.7 °F 42.4 °F 86% 29.85 in - West 12.7 mph - N/A   Unknown
5:00 AM 45.5 °F 41.3 °F 41.2 °F 85% 29.81 in - SSE 8.1 mph - N/A   Unknown
6:00 AM 44.2 °F 38.0 °F 41.5 °F 90% 29.75 in - ESE 12.7 mph - 0.02 in   Unknown
7:00 AM 43.9 °F 38.8 °F 41.5 °F 91% 29.73 in - East 9.2 mph - N/A   Unknown
8:00 AM 42.8 °F 40.1 °F 41.0 °F 93% 29.69 in - NE 4.6 mph - N/A   Unknown
9:00 AM 42.3 °F 38.6 °F 40.6 °F 94% 29.67 in - ENE 5.8 mph - 0.04 in   Unknown
10:00 AM 43 °F - 41 °F 89% 29.63 in - East 5.8 mph - -  
10:00 AM 42.8 °F 39.3 °F 40.8 °F 93% 29.63 in - East 5.8 mph - 0.04 in   Unknown
11:00 AM 43.3 °F 37.7 °F 40.5 °F 90% 29.59 in - NE 10.4 mph - 0.08 in   Unknown
12:00 PM 45.9 °F - 40.5 °F 81% 29.56 in - North 1.2 mph - 0.02 in   Unknown
1:00 PM 44.8 °F - 42.6 °F 92% 29.55 in - Calm Calm - N/A   Unknown
2:00 PM 44.2 °F - 42.6 °F 94% 29.54 in - NW 1.2 mph - 0.05 in   Unknown
3:00 PM 44.4 °F - 43.0 °F 95% 29.52 in - East 2.3 mph - N/A   Unknown
4:00 PM 44 °F - 43 °F 93% 29.52 in - NE 3.5 mph - -  
4:00 PM 44.1 °F 42.5 °F 42.6 °F 95% 29.52 in - NE 3.5 mph - N/A   Unknown
5:00 PM 44.2 °F - 42.8 °F 95% 29.52 in - SE 1.2 mph - N/A   Unknown
6:00 PM 44.4 °F - 42.8 °F 94% 29.53 in - Calm Calm - N/A   Unknown
7:00 PM 44.4 °F 42.9 °F 42.8 °F 94% 29.54 in - WNW 3.5 mph - 0.03 in   Unknown
8:00 PM 44.4 °F 42.0 °F 42.6 °F 93% 29.55 in - WNW 4.6 mph - N/A   Unknown
9:00 PM 44.2 °F 40.3 °F 41.9 °F 91% 29.56 in - WNW 6.9 mph - N/A   Unknown
10:00 PM 43 °F - 40 °F 86% 29.57 in - Calm Calm - -  
10:00 PM 42.8 °F - 40.3 °F 91% 29.57 in - Calm Calm - N/A   Unknown
11:00 PM 43.3 °F - 40.5 °F 90% 29.58 in - Calm Calm - N/A   Unknown